Regional Weather Roundup
Issued by NWS

Home | Current Version | Previous Version | Graphics & Text | Print | Product List | Glossary On
Versions: 1 2 3 4 5 6 7 8 9 10 11 12 13 14 15 16 17 18 19 20 21 22 23 24 25 26 27 28 29 30 31 32 33 34 35 36 37 38 39 40 41 42 43 44 45 46 47 48 49 50
000
ASUS45 KSLC 312210
RWRUT

UTAH REGIONAL WEATHER ROUNDUP
NATIONAL WEATHER SERVICE SALT LAKE CITY UT
400 PM MDT MON AUG 31 2015

UTZ001>011-023>025-312300-

NORTHERN UTAH

CITY           SKY/WX    TMP DP  RH WIND       PRES   REMARKS
BRIGHAM CITY   SUNNY     84  21  10 CALM      30.02F
HILL AFB       SUNNY     84  42  22 VRB5      30.05F
LOGAN          SUNNY     85  28  12 N10       30.02F
OGDEN          SUNNY     84  37  18 CALM      30.02F
PROVO AIRPORT  NOT AVBL
SALT LAKE CITY MOSUNNY   86  40  19 N13       30.00F
VERNAL         PTSUNNY   78  45  30 N9        30.10S
WENDOVER       SUNNY     82  27  13 SE8       30.01F
HEBER CITY     MOSUNNY   84  34  16 SW5       30.08F
WEST JORDAN    SUNNY     84  43  23 N12       30.03F

$$

UTZ012>022-026-027-312300-

SOUTHERN/CENTRAL UTAH

CITY           SKY/WX    TMP DP  RH WIND       PRES   REMARKS
BLANDING       CLOUDY    80  45  29 S10       30.23F
BRYCE CANYON   PTSUNNY   77  41  27 SW9       30.26F
CEDAR CITY     SUNNY     85  39  19 SW15G25   30.09F
DELTA          SUNNY     88  32  13 CALM      30.02F
HANKSVILLE     CLOUDY    82  46  28 S8        30.06R
MILFORD        SUNNY     91  37  15 S15G25    30.02F
MOAB/CYNLANDS  SUNNY     86  50  28 CALM      30.03F
PRICE          MOSUNNY   81  49  32 SE10      30.11F
ST GEORGE      PTCLDY    97  46  17 W7G16     29.90F HX  93
KANAB          SUNNY     84  52  32 CALM      30.13F

$$

REGIONAL REPORTS     COLORADO/ARIZONA

CITY           SKY/WX    TMP DP  RH WIND       PRES   REMARKS
CRAIG, CO      PTSUNNY   71  54  54 VRB3      30.16S
GRAND JUNCTION PTSUNNY   82  51  34 E6        30.08F
RIFLE          PTSUNNY   74  52  46 VRB3      30.15F
MONTROSE       PTSUNNY   80  48  32 NW9       30.16F
CORTEZ         SUNNY     82  41  23 W16       30.15F
PAGE, AZ       MOSUNNY   84  57  39 VRB7      30.06F
GRAND CANYON   PTSUNNY   69  53  56 S13       30.26S
KINGMAN        SUNNY     97  45  16 SW21G31   29.95F HX  93
FLAGSTAFF      CLOUDY    69  55  60 W3        30.29S

$$

REGIONAL REPORTS    NEVADA/IDAHO/WYOMING

CITY           SKY/WX    TMP DP  RH WIND       PRES   REMARKS
LAS VEGAS, NV  MOSUNNY  101  43  13 S6G20     29.78F HX  96
ELY            SUNNY     84  25  11 VRB5      30.10F
ELKO           SUNNY     86  26  11 VRB5      30.02F
POCATELLO, ID  SUNNY     80  29  15 W16       30.05F
BURLEY         SUNNY     79  36  21 VRB5      30.02F
EVANSTON, WY   MOSUNNY   80  29  15 W22G28    30.18F
ROCK SPRINGS   PTSUNNY   73  42  32 S20       30.17F
KEMMERER       SUNNY    N/A N/A N/A W18G26    30.19F

$$



USA.gov is the U.S. government's official web portal to all federal, state and local government web resources and services.